Location: ???? ????
(31.2831°N, 45.5190°E)
Time: 07:14:47
(UTC+00:00)

SJ-11-01 - Pass Details

Date: 24 February 2021
Orbit: 685 x 700 km, 98.0° (Epoch: 15 April)

Event Time Altitude Azimuth Distance (km) Brightness Sun altitude
Rises 15:49:04 0° 164° (SSE) 3,033 7.5 -12.8°
Reaches altitude 10° 15:51:17 10° 163° (SSE) 2,121 6.7 -13.3°
Maximum altitude 15:55:56 80° 76° (ENE) 700 4.2 -14.3°
Drops below altitude 10° 16:00:37 10° 351° (N) 2,139 6.9 -15.3°
Sets 16:02:52 0° 350° (N) 3,061 7.7 -15.8°
